STARLINK-11491 [DTC] (62269 NORAD) Tracking and Keplerian Element Data

This shows tracking and keplerian element data for the satellite.

Feedback or suggestion? Click here.




ElementValue
Catalog62269
NameSTARLINK-11491 [DTC]
Epoch Orbit1021
Epoch Day34.14761781
Epoch Year2025
RAAN305.0158
Inclination42.9989
Eccentricity9.05E-05
Argument of Perigee283.1073
Mean Anonmoly76.9697
Mean Motion15.77860843
Decay Rate0.00020443
L11 62269U 24237C 25034.14761781 .00020443 00000+0 12003-3 0 9993
L22 62269 42.9989 305.0158 0000905 283.1073 76.9697 15.77860843 10215



Live tracking and technical data element details for STARLINK-11491 [DTC] (NORAD 62269). STARLINK-11491 [DTC] can be tracked NOW for your location showing map with azimuth and elevation plus other details from your city location.







IsCatalogInMostPopularTable: catalog: 62269, numindb: 15
Update: records affected: 1



GetName: 62269 STARLINK-11491 [DTC]

Hit Count: updated at: Sun, 18 May 2025 23:13:17 GMT